AirNav   ProFlight Series 2 Aviation Headset
 
 1026 users online  

PS29 Sugan Pond Heliport
Solebury, Pennsylvania, USA

GOING TO SOLEBURY?


FAA INFORMATION EFFECTIVE 18 JUNE 2020

Location

FAA Identifier: PS29
Lat/Long: 40-22-30.3800N 074-59-28.6060W
40-22.506333N 074-59.476767W
40.3751056,-74.9912794
(estimated)
Elevation: 320 ft. / 98 m (estimated)
Variation: 12W (1985)
From city: 2 miles W of SOLEBURY, PA
Time zone: UTC -4 (UTC -5 during Standard Time)
Zip code: 18938

Heliport Operations

Heliport use: Private use. Permission required prior to landing
Activation date: 11/1983
Control tower: no
ARTCC: NEW YORK CENTER
FSS: WILLIAMSPORT FLIGHT SERVICE STATION
Attendance: UNATNDD
Wind indicator: yes
Segmented circle: no

Heliport Communications

WX ASOS at DYL (7 nm SW): 118.875 (215-345-0392)
WX ASOS at TTN (10 nm SE): 126.775 (609-538-8690)
WX AWOS-3 at N40 (11 nm N): 121.725
WX AWOS-3 at CKZ (14 nm W): 126.325 (215-257-7291)
WX ASOS at PNE (18 nm S): 121.15 (215-677-0146)
WX AWOS-3 at UKT (18 nm W): 119.475 (215-538-7610)
WX AWOS-3 at LOM (19 nm SW): 118.925 (215-646-1068)

Nearby radio navigation aids

VOR radial/distance  VOR name  Freq  Var
ARDr342/8.2YARDLEY VOR/DME108.2010W
SBJr232/16.9SOLBERG VOR/DME112.9010W
RBVr305/25.0ROBBINSVILLE VORTAC113.8010W
BWZr208/26.5BROADWAY VOR/DME114.2011W
PTWr080/27.6POTTSTOWN VORTAC116.5009W
GXUr332/28.4MC GUIRE VORTAC110.6012W
FJCr145/29.9ALLENTOWN VORTAC117.5010W
ETXr120/33.9EAST TEXAS VOR/DME110.2009W
STWr199/37.7STILLWATER VOR/DME109.6011W
COLr287/38.2COLTS NECK VOR/DME115.4011W

 
NDB name  Hdg/Dist  Freq  Var  ID
AMBLER054/20.127512WING .. -. --.
CHATHAM242/33.725413WCAT -.-. .- -
LAKEHURST314/36.039611WNEL -. . .-..

Heliport Services

Runway Information

Helipad H1

Dimensions: 100 x 100 ft. / 30 x 30 m
Surface: turf, in fair condition
Latitude: 40-22.506333N
Longitude: 074-59.476767W
Elevation: 320.0 ft.
Traffic pattern: leftleft
Markings: none, in fair condition

Heliport Ownership and Management from official FAA records

Ownership: Privately-owned
Owner: ROBERT I. TOLL
250 GIBRALTER RD.
HORSHAM, PA 19044
Phone (215) 938-8020
Manager: ROBERT I. TOLL
2890 SUGAN RD.
SOLEBURY, PA 18963
Phone (215) 938-8020

Additional Remarks

FOR CD CTC PHILADELPHIA APCH AT 800-354-9884.

Instrument Procedures

There are no published instrument procedures at PS29.

Some nearby airports with instrument procedures:

KDYL - Doylestown Airport (7 nm SW)
KTTN - Trenton Mercer Airport (10 nm SE)
N40 - Sky Manor Airport (11 nm N)
N85 - Alexandria Airport (13 nm N)
KCKZ - Pennridge Airport (14 nm W)
39N - Princeton Airport (15 nm E)
N51 - Solberg-Hunterdon Airport (17 nm NE)
KPNE - Northeast Philadelphia Airport (18 nm S)
KUKT - Quakertown Airport (18 nm W)
KLOM - Wings Field Airport (19 nm SW)
 
Loc | Ops | Rwys | IFR | FBO | Links
Com | Nav | Svcs | Stats | Notes
Area around PS29 (Sugan Pond Heliport)
 
Road maps at: MapQuest Bing Google
 
Aerial photo
No photo
 
Sectional chart

 
Airport distance calculator
Flying to Sugan Pond Heliport? Find the distance to fly.

From to PS29

Sunrise and sunset
Times for 12-Jul-2020
 Local
(UTC-4)
 Zulu
(UTC)
Morning civil twilight05:1009:10
Sunrise05:4209:42
Sunset20:2900:29
Evening civil twilight21:0201:02

Current date and time
Zulu (UTC)  12-Jul-2020 19:54:24
Local (UTC-4)  12-Jul-2020 15:54:24
 
METAR
KDYL 
6nm SW 
121854Z AUTO 24006KT 10SM FEW055 FEW095 32/16 A2975 RMK AO2 SLP067 T03220161
KTTN 
10nm SE 
ASOS 133.70 609-538-8690
121853Z 21009G16KT 10SM SCT065 31/17 A2973 RMK AO2 SLP061 T03060167
KCKZ 
14nm W 
121935Z AUTO 24005G15KT 10SM SCT060 29/17 A2976 RMK AO2
KPNE 
18nm S 
121854Z 24009KT 10SM SCT065 31/16 A2975 RMK AO2 SLP074 T03110156
KUKT 
18nm W 
121935Z AUTO 21005G11KT 10SM SCT055 SCT065 SCT075 30/18 A2975 RMK A01
KLOM 
19nm SW 
121935Z AUTO 23008KT 10SM SCT060 SCT075 SCT100 31/18 A2974 RMK AO2 T03120180
TAF
KTTN 
10nm SE 
121726Z 1218/1318 25010G16KT P6SM SCT060 BKN120 FM122200 24006KT P6SM VCSH BKN040 FM130000 25004KT P6SM -SHRA BKN040 FM130700 VRB03KT P6SM BKN060 FM131300 28005KT P6SM BKN200
KPNE 
18nm S 
121726Z 1218/1318 27008KT P6SM SCT060 BKN120 FM122200 24006KT P6SM VCSH BKN050 FM130000 25006KT P6SM -SHRA BKN045 FM130600 VRB02KT P6SM BKN060 FM131300 28006KT P6SM BKN200
NOTAMs
Click for the latest NOTAMs
NOTAMs are issued by the DoD/FAA and will open in a separate window not controlled by AirNav.

 

 
 

Would you like to see your business listed on this page?

 If your business provides an interesting product or service to pilots, flight crews, aircraft, or users of the Sugan Pond Heliport, you should consider listing it here.  To start the listing process, click on the button below
 
Add a business
 

Other Pages about Sugan Pond Heliport

Update a link
 
Copyright © AirNav, LLC. All rights reserved. Privacy Policy  Contact